This is the latest recevied weather packets stored in our database for station/object KE4EST. If no packets are shown the sender has not sent any weather packets the latest 10 day(s).
| Time | Temp. | Humidity | Pressure | Rain* | Wind** | Luminosity | Snow |
|---|---|---|---|---|---|---|---|
| 1778201242 | 12.22° C | 91% | 1014.8 hPa | 0 mm | - | 0 W/m² | - |
| 1778200939 | 12.78° C | 91% | 1014.8 hPa | 0 mm | - | 0 W/m² | - |
| 1778200635 | 12.78° C | 89% | 1014.5 hPa | 0 mm | - | 0 W/m² | - |
| 1778200333 | 13.33° C | 87% | 1014.4 hPa | 0 mm | - | 1 W/m² | - |
| 1778200029 | 13.33° C | 86% | 1014.3 hPa | 0 mm | - | 2 W/m² | - |
| 1778199727 | 13.33° C | 86% | 1014.4 hPa | 0 mm | - | 3 W/m² | - |
| 1778199422 | 13.89° C | 84% | 1014.5 hPa | 0 mm | - | 4 W/m² | - |
| 1778199118 | 13.89° C | 82% | 1014.3 hPa | 0 mm | - | 8 W/m² | - |
| 1778198815 | 14.44° C | 81% | 1014.1 hPa | 0 mm | - | 10 W/m² | - |
| 1778198512 | 14.44° C | 81% | 1014.1 hPa | 0 mm | - | 12 W/m² | - |
| 1778198208 | 14.44° C | 80% | 1014.2 hPa | 0 mm | - | 17 W/m² | - |
| 1778197905 | 15° C | 80% | 1014.2 hPa | 0 mm | - | 17 W/m² | - |
| 1778197603 | 15° C | 82% | 1014.1 hPa | 0 mm | - | 20 W/m² | - |
| 1778197299 | 15° C | 79% | 1014.1 hPa | 0 mm | - | 24 W/m² | - |
| 1778196996 | 15° C | 79% | 1013.8 hPa | 0 mm | - | 19 W/m² | - |
| 1778196694 | 15° C | 78% | 1013.7 hPa | 0 mm | - | 25 W/m² | - |
| 1778196390 | 15° C | 79% | 1013.8 hPa | 0 mm | - | 22 W/m² | - |
| 1778196088 | 15° C | 80% | 1013.8 hPa | 0 mm | - | 24 W/m² | - |
| 1778195784 | 15° C | 80% | 1013.8 hPa | 0 mm | - | 40 W/m² | - |
| 1778195481 | 15° C | 78% | 1013.7 hPa | 0 mm | - | 37 W/m² | - |
| 1778195177 | 15° C | 79% | 1013.6 hPa | 0 mm | - | 28 W/m² | - |
| 1778194875 | 15.56° C | 77% | 1013.7 hPa | 0 mm | - | 24 W/m² | - |
| 1778194569 | 15.56° C | 76% | 1013.9 hPa | 0 mm | - | 45 W/m² | - |
| 1778194266 | 15.56° C | 76% | 1013.8 hPa | 0 mm | - | 54 W/m² | - |
| 1778193962 | 15° C | 76% | 1013.9 hPa | 0 mm | - | 44 W/m² | - |
* Rain latest hour (hover to see other rain measurements)
** Current wind speed in m/s (hover to see current wind gust speed)